Regional Weather Roundup
Issued by NWS

Home | Current Version | Previous Version | Text Only | Print | Product List | Glossary Off
Versions: 1 2 3 4 5 6 7 8 9 10 11 12 13 14 15 16 17 18 19 20 21 22 23 24 25 26 27 28 29 30 31 32 33 34 35 36 37 38 39 40 41 42 43 44 45 46 47 48 49 50

000
ASUS43 KBIS 030020
RWRND

NORTH DAKOTA REGIONAL WEATHER ROUNDUP
NATIONAL WEATHER SERVICE BISMARCK ND
600 PM CST MON MAR 02 2015

NOTE: "FAIR" INDICATES FEW OR NO CLOUDS BELOW 12,000 FEET WITH NO
SIGNIFICANT WEATHER AND/OR OBSTRUCTIONS TO VISIBILITY.


NDZ001>003-009>011-017-030100-
NORTHWEST NORTH DAKOTA

CITY           SKY/WX    TMP DP  RH WIND       PRES   REMARKS
WILLISTON      MOCLDY    29  20  69 NW26G35   29.76F WCI  14
6HR MIN TEMP:  29; 6HR MAX TEMP:  40;

MINOT          CLEAR     33  20  58 SW6       29.71S
MINOT AFB      CLEAR     28  22  78 W8        29.70F
$$

NDZ018>021-031>035-040>046-030100-
SOUTHWEST NORTH DAKOTA

CITY           SKY/WX    TMP DP  RH WIND       PRES   REMARKS
BISMARCK       MOCLDY    37  24  59 S9        29.73F
6HR MIN TEMP:  31; 6HR MAX TEMP:  42;

DICKINSON      MOCLDY    38  14  37 W10       29.69R
GARRISON         N/A     31  22  69 W7        29.70S
6HR MIN TEMP:  27; 6HR MAX TEMP:  36;

HETTINGER ARPT MOCLDY    39  12  33 W7        29.71F
$$

NDZ004>008-012>016-024-026-027-054-030100-
NORTHEAST NORTH DAKOTA

CITY           SKY/WX    TMP DP  RH WIND       PRES   REMARKS
GRAND FORKS    PTCLDY    28  17  63 S20G30    29.89F WCI  15
GRND FRKS AFB  CLEAR     27  17  65 S23       29.86F WCI  13
DEVILS LAKE    CLEAR     27  19  74 S17       29.78S WCI  14
$$

NDZ022-023-025-028>030-036>039-047>053-030100-
SOUTHEAST NORTH DAKOTA

CITY           SKY/WX    TMP DP  RH WIND       PRES   REMARKS
FARGO          FAIR      30  17  58 S23G33    29.95F WCI  17
6HR MIN TEMP:  28; 6HR MAX TEMP:  33; 6HR PCP: TRACE;

JAMESTOWN      PTCLDY    29  21  72 S18       29.80F WCI  16
$$




USA.gov is the U.S. government's official web portal to all federal, state and local government web resources and services.